EW7906 Weather Reports


time (UTC)temp
F
wind
direction
speed
knots
gust
knots
rain 1hr
in
rain 24hr
in
rain mn
in
humidity
%
barometer
mb
20260503025857 85 49 0.0 0.0 0.00 0.00 0.00 100 1020.5
20260503025357 85 49 0.0 0.0 0.00 0.00 0.00 100 1020.6
20260503024849 85 49 0.0 0.0 0.00 0.00 0.00 100 1020.6
20260503024316 85 49 0.0 0.0 0.00 0.00 0.00 100 1020.6
20260503023803 85 49 0.0 0.0 0.00 0.00 0.00 100 1020.4
20260503023759 85 49 0.0 0.0 0.00 0.00 0.00 100 1020.3
20260503022743 85 49 0.0 0.0 0.00 0.00 0.00 100 1020.2
20260503022242 86 49 0.0 0.0 0.00 0.00 0.00 100 1020.1
20260503021743 87 49 0.0 0.0 0.00 0.00 0.00 100 1020.1
20260503021225 87 49 0.0 0.0 0.00 0.00 0.00 100 1020.0
20260503020722 87 49 0.0 0.0 0.00 0.00 0.00 100 1019.9
20260503020212 87 49 0.0 0.0 0.00 0.00 0.00 100 1019.9
20260503015943 87 49 0.0 0.0 0.00 0.00 0.00 100 1019.9
20260503015203 87 49 0.0 0.0 0.00 0.00 0.00 100 1019.9
20260503014641 88 49 0.0 0.0 0.00 0.00 0.00 100 1019.9
20260503014141 88 49 0.0 0.0 0.00 0.00 0.00 100 1019.9
20260503013628 88 49 0.0 0.0 0.00 0.00 0.00 100 1019.9
20260503013122 88 49 0.0 0.0 0.00 0.00 0.00 100 1019.9
20260503012621 88 49 0.0 0.0 0.00 0.00 0.00 100 1019.8
20260503012102 89 49 0.0 0.0 0.00 0.00 0.00 100 1019.7
20260503011601 89 49 0.0 0.0 0.00 0.00 0.00 100 1019.6
20260503011039 90 49 0.0 0.0 0.00 0.00 0.00 100 1019.6
20260503010529 90 49 0.0 0.0 0.00 0.00 0.00 100 1019.5
20260503010025 91 49 0.0 0.0 0.00 0.00 0.00 100 1019.5
20260503005513 91 49 0.0 0.0 0.00 0.00 0.00 100 1019.6
20260503004958 91 49 0.0 0.0 0.00 0.00 0.00 100 1019.5
20260503004459 91 49 0.0 0.0 0.00 0.00 0.00 100 1019.5
20260503004227 92 49 0.0 0.0 0.00 0.00 0.00 100 1019.4
20260503003437 92 49 0.0 0.0 0.00 0.00 0.00 100 1019.4
20260503002911 92 49 0.0 4.3 0.00 0.00 0.00 100 1019.4
20260503002346 93 49 0.0 4.3 0.00 0.00 0.00 100 1019.3
20260503001825 93 59 0.0 5.2 0.00 0.00 0.00 100 1019.3
20260503001309 93 59 0.0 5.2 0.00 0.00 0.00 100 1019.3
20260503000809 93 46 0.9 4.3 0.00 0.00 0.00 100 1019.3
20260503000311 93 22 0.0 3.5 0.00 0.00 0.00 100 1019.3
20260502235809 93 274 0.0 1.7 0.00 0.00 0.00 100 1019.2
20260502235258 93 274 0.0 4.3 0.00 0.01 0.00 100 1019.2
20260502234742 94 274 0.0 4.3 0.00 0.01 0.00 100 1019.3
20260502234243 94 120 1.7 6.1 0.00 0.01 0.00 100 1019.3
20260502234010 94 2 1.7 6.1 0.00 0.01 0.00 100 1019.2
20260502233239 94 326 0.0 4.3 0.00 0.01 0.00 100 1019.2
20260502232740 94 319 0.9 4.3 0.00 0.01 0.00 100 1019.2
20260502232234 94 354 0.0 5.2 0.00 0.01 0.00 100 1019.2
20260502231731 94 354 2.6 5.2 0.00 0.01 0.00 100 1019.2
20260502231229 94 32 0.0 8.7 0.00 0.01 0.00 100 1019.1
20260502230717 94 16 0.0 8.7 0.00 0.01 0.00 100 1019.2
20260502230216 94 347 0.9 7.8 0.00 0.01 0.00 100 1019.1
20260502225715 94 358 1.7 7.8 0.00 0.01 0.00 100 1019.2
20260502225212 94 130 0.9 4.3 0.00 0.01 0.00 100 1019.2
20260502224943 94 281 0.9 7.8 0.00 0.01 0.00 100 1019.1
20260502224441 94 97 3.5 7.8 0.00 0.01 0.00 100 1019.2
20260502223943 94 19 0.0 7.8 0.00 0.01 0.00 100 1019.2
20260502223157 94 19 0.0 7.8 0.00 0.01 0.00 100 1019.2
20260502222656 94 49 0.0 10.4 0.00 0.02 0.00 100 1019.3
20260502222157 94 315 4.3 10.4 0.00 0.02 0.00 100 1019.3
20260502221657 94 358 0.9 7.8 0.00 0.02 0.00 100 1019.4
20260502221158 94 337 0.0 7.0 0.00 0.02 0.00 100 1019.3
20260502220624 95 59 1.7 8.7 0.00 0.02 0.00 100 1019.4
20260502220115 95 358 1.7 7.8 0.00 0.03 0.00 100 1019.4
20260502215616 94 53 4.3 7.0 0.00 0.03 0.00 100 1019.4
20260502215115 95 47 0.9 8.7 0.00 0.04 0.00 100 1019.4
20260502214601 94 81 1.7 9.6 0.00 0.05 0.00 100 1019.5
20260502214059 95 59 4.3 9.6 0.00 0.06 0.00 100 1019.5
20260502213559 95 43 0.0 7.8 0.00 0.07 0.00 100 1019.5
20260502213053 95 347 0.0 7.8 0.00 0.09 0.00 100 1019.6
20260502212543 95 298 1.7 8.7 0.00 0.10 0.00 100 1019.7
20260502212043 95 21 1.7 8.7 0.00 0.11 0.00 100 1019.8
20260502211542 95 52 2.6 8.7 0.00 0.12 0.00 100 1019.8
20260502211042 95 66 0.9 7.8 0.00 0.12 0.00 100 1019.8
20260502210813 96 54 3.5 6.1 0.00 0.12 0.00 100 1019.9
20260502210042 96 94 0.0 9.6 0.00 0.12 0.00 100 1020.0
20260502205541 97 81 2.6 9.6 0.00 0.12 0.00 100 1020.2
20260502205042 97 334 2.6 8.7 0.00 0.12 0.00 100 1020.3
20260502204542 97 88 3.5 7.0 0.00 0.12 0.00 100 1020.4
20260502204040 96 319 3.5 7.0 0.00 0.12 0.00 100 1020.3
20260502203540 96 53 2.6 9.6 0.00 0.12 0.00 100 1020.4
20260502203039 96 358 3.5 11.3 0.00 0.12 0.00 100 1020.4
20260502202539 96 322 5.2 11.3 0.00 0.12 0.00 100 1020.5
20260502202040 96 23 4.3 8.7 0.00 0.12 0.00 100 1020.6
20260502201540 97 351 2.6 7.0 0.00 0.12 0.00 100 1020.6
20260502201311 96 68 3.5 7.0 0.00 0.12 0.00 100 1020.7
20260502200540 96 7 3.5 7.8 0.00 0.12 0.00 100 1020.7
20260502200040 96 14 0.0 7.8 0.00 0.13 0.00 100 1020.7
20260502195538 96 12 3.5 8.7 0.00 0.13 0.00 100 1020.7
20260502195038 96 8 2.6 9.6 0.00 0.13 0.00 100 1020.8
20260502194806 96 21 3.5 9.6 0.00 0.13 0.00 100 1020.7
20260502194035 95 300 4.3 9.6 0.00 0.13 0.00 100 1020.7
20260502193533 94 106 3.5 8.7 0.00 0.14 0.00 100 1020.7
20260502193032 95 33 1.7 11.3 0.00 0.15 0.00 100 1020.8
20260502192529 95 30 1.7 11.3 0.00 0.16 0.00 100 1020.9
20260502192012 95 8 1.7 5.2 0.00 0.17 0.00 100 1020.9
20260502191512 95 43 0.0 7.8 0.00 0.18 0.00 100 1020.8
20260502190957 94 350 1.7 7.8 0.00 0.18 0.00 100 1020.9
20260502190458 94 67 3.5 10.4 0.00 0.18 0.00 100 1020.9
20260502185956 94 326 6.1 10.4 0.00 0.18 0.00 100 1020.9
20260502185727 94 36 2.6 7.8 0.00 0.18 0.00 100 1021.1
20260502184944 94 7 5.2 8.7 0.00 0.18 0.00 100 1021.1
20260502184444 93 74 3.5 10.4 0.00 0.18 0.00 100 1021.2
20260502183944 93 9 5.2 10.4 0.00 0.18 0.00 100 1021.4
20260502183444 93 32 5.2 8.7 0.00 0.18 0.00 100 1021.4
20260502182945 92 30 5.2 8.7 0.00 0.18 0.00 100 1021.5
20260502182714 92 324 3.5 7.8 0.00 0.18 0.00 100 1021.6
20260502181943 92 16 0.0 8.7 0.00 0.19 0.00 100 1021.7
20260502181440 93 358 4.3 9.6 0.00 0.21 0.00 100 1021.7
20260502180936 93 59 0.0 9.6 0.00 0.24 0.00 100 1021.9
20260502180418 93 21 1.7 7.8 0.00 0.32 0.00 100 1022.0
20260502170350 90 49 0.9 7.0 0.00 0.37 0.00 100 1022.7
20260502170115 90 78 0.0 8.7 0.00 0.37 0.00 100 1022.7
20260502164339 89 327 3.5 9.6 0.00 0.37 0.00 100 1022.7
20260502163839 90 327 4.3 9.6 0.00 0.37 0.00 100 1022.7
20260502163338 88 101 2.6 8.7 0.00 0.37 0.00 100 1022.7
20260502163106 88 81 1.7 9.6 0.00 0.37 0.00 100 1022.7
20260502162337 89 345 4.3 12.2 0.00 0.37 0.00 100 1022.7
20260502162104 88 15 1.7 12.2 0.00 0.37 0.00 100 1022.7
20260502161331 87 327 5.2 10.4 0.00 0.37 0.00 100 1022.8
20260502161102 87 337 4.3 7.0 0.00 0.37 0.00 100 1022.8
20260502160937 88 351 0.0 7.8 0.00 0.37 0.00 100 1022.8
20260502152312 87 15 0.0 7.0 0.00 0.41 0.00 100 1022.8
20260502151812 86 348 3.5 7.8 0.00 0.41 0.00 100 1022.7
20260502151312 86 37 5.2 7.8 0.00 0.41 0.00 100 1022.7
20260502150809 85 319 5.2 7.0 0.00 0.42 0.00 100 1022.7
20260502150310 85 343 3.5 7.0 0.00 0.42 0.00 100 1022.6
20260502130554 79 303 0.0 0.0 0.00 0.64 0.00 1 1021.6
20260502123529 78 303 0.0 1.7 0.00 0.65 0.00 45 1021.1
20260502123016 78 303 0.0 2.6 0.00 0.66 0.00 66 1021.1
20260502122511 78 303 0.0 2.6 0.00 0.67 0.00 88 1021.1
20260502122010 78 352 0.0 0.0 0.00 0.67 0.00 100 1020.9
20260502121503 78 352 0.0 0.0 0.00 0.67 0.00 100 1020.7
20260502120957 78 352 0.0 0.0 0.00 0.67 0.00 100 1020.7
20260502120450 78 352 0.0 0.0 0.00 0.68 0.00 100 1020.6
20260502115432 77 352 0.0 0.0 0.00 0.73 0.00 100 1020.3
20260502114929 77 352 0.0 0.0 0.00 0.79 0.00 100 1020.3
20260502114923 76 352 0.0 0.0 0.00 0.81 0.00 96 1020.3
20260502113922 76 352 0.0 0.0 0.00 0.82 0.00 92 1020.2
20260502113411 76 352 0.0 0.0 0.00 0.83 0.00 87 1020.1
20260502113136 76 352 0.0 0.0 0.00 0.83 0.00 76 1020.1
20260502112402 77 352 0.0 0.0 0.00 0.84 0.00 68 1020.1
20260502111902 76 352 0.0 0.0 0.00 0.85 0.00 55 1019.9
20260502111352 76 352 0.0 0.0 0.00 0.86 0.00 52 1019.9
20260502110853 77 352 0.0 0.0 0.00 0.88 0.00 48 1019.9
20260502110344 76 352 0.0 0.0 0.00 0.89 0.00 39 1020.0
20260502105839 76 352 0.0 0.0 0.00 0.89 0.00 29 1019.9
20260502105333 76 352 0.0 0.0 0.00 0.89 0.00 21 1019.8
20260502104828 76 352 0.0 0.0 0.00 0.90 0.00 18 1019.7
20260502104329 76 352 0.0 0.0 0.00 0.91 0.00 16 1019.6
20260502103812 77 352 0.0 0.0 0.00 0.93 0.00 6 1019.5
20260502103303 77 352 0.0 0.0 0.00 0.95 0.00 5 1019.3
20260502102758 77 352 0.0 0.0 0.00 0.96 0.00 5 1019.2
20260502102238 77 352 0.0 0.0 0.00 0.99 0.00 4 1019.2
20260502101729 77 352 0.0 0.0 0.00 1.01 0.00 3 1019.0
20260502101231 78 352 0.0 0.0 0.00 1.04 0.00 3 1019.0
20260502100727 78 352 0.0 0.0 0.00 1.05 0.00 3 1018.9
20260502100226 78 352 0.0 0.0 0.00 1.06 0.00 1 1018.8
20260502091524 78 348 0.0 0.0 0.00 1.12 0.00 100 1018.2
20260502091021 78 348 0.0 0.0 0.00 1.14 0.00 100 1018.2
20260502090513 78 348 0.0 0.0 0.00 1.16 0.00 1 1018.2
20260502071144 78 309 0.9 3.5 0.00 1.20 0.00 18 1018.0
20260502070628 78 19 0.0 3.5 0.00 1.20 0.00 19 1017.9
20260502070126 78 352 0.0 3.5 0.00 1.20 0.00 19 1017.9
20260502065623 78 358 0.0 2.6 0.00 1.20 0.00 21 1017.9
20260502065108 78 354 0.0 0.0 0.00 1.20 0.00 29 1017.8
20260502064837 78 354 0.0 0.0 0.00 1.20 0.00 31 1017.8
20260502064103 78 354 0.0 0.0 0.00 1.20 0.00 36 1017.8
20260502063827 78 354 0.0 0.0 0.00 1.20 0.00 45 1017.9
20260502063052 78 354 0.0 0.0 0.00 1.20 0.00 45 1017.9
20260502062539 78 354 0.0 0.0 0.00 1.20 0.00 44 1018.0
20260502062038 78 354 0.0 0.0 0.00 1.20 0.00 37 1018.0
20260502061756 78 354 0.0 0.0 0.00 1.20 0.00 35 1017.9
20260502061016 78 354 0.0 0.9 0.00 1.20 0.00 39 1018.1
20260502060517 78 354 0.0 3.5 0.00 1.20 0.00 53 1018.1
20260502060016 78 354 0.9 3.5 0.00 1.20 0.00 72 1018.2
20260502055505 78 333 0.0 0.0 0.00 1.20 0.00 84 1018.2
20260502054956 78 333 0.0 0.0 0.00 1.20 0.00 89 1018.2
20260502054455 78 333 0.0 0.0 0.00 1.20 0.00 90 1018.1
20260502053952 78 333 0.0 0.0 0.00 1.20 0.00 87 1018.0
20260502053451 78 333 0.0 0.0 0.00 1.20 0.00 83 1017.9
20260502052939 78 333 0.0 0.0 0.00 1.20 0.00 76 1017.9
20260502052658 78 333 0.0 0.0 0.00 1.20 0.00 73 1017.9
20260502051928 77 333 0.0 0.0 0.00 1.20 0.00 64 1017.8
20260502051422 78 333 0.0 0.0 0.00 1.20 0.00 52 1017.8
20260502050918 77 333 0.0 0.0 0.00 1.20 0.00 42 1017.9
20260502050404 77 333 0.0 0.0 0.00 1.20 0.00 36 1017.8
20260502045859 77 333 0.0 0.0 0.00 1.20 1.20 28 1017.8
20260502045358 78 333 0.0 0.0 0.00 1.20 1.20 23 1017.8
20260502044837 78 333 0.0 0.0 0.00 1.20 1.20 14 1017.8
20260502044303 78 333 0.0 0.0 0.00 1.20 1.20 7 1017.8
20260502043759 78 333 0.0 0.0 0.00 1.21 1.20 5 1017.8
20260502043253 78 333 0.0 0.0 0.00 1.21 1.20 4 1017.8
20260502042744 78 333 0.0 0.0 0.00 1.21 1.20 2 1017.8
20260502042217 78 333 0.0 0.0 0.00 1.21 1.20 1 1017.8
20260502041711 79 333 0.0 2.6 0.00 1.21 1.20 100 1017.8
20260502041203 78 333 0.0 4.3 0.00 1.21 1.20 100 1017.8
20260502040657 79 42 0.0 4.3 0.00 1.21 1.20 100 1017.8
20260502040145 79 0 0.0 0.0 0.00 1.21 1.20 100 1017.7
20260502035626 79 0 0.0 0.0 0.00 1.21 1.20 100 1017.7
20260502035116 79 0 0.0 0.0 0.00 1.21 1.20 100 1017.8
20260502034614 79 0 0.0 0.0 0.00 1.22 1.20 100 1017.9
20260502034108 79 0 0.0 0.0 0.00 1.22 1.20 100 1017.9
20260502033604 79 0 0.0 0.0 0.00 1.22 1.20 100 1018.0
20260502033059 79 0 0.0 1.7 0.00 1.22 1.20 100 1018.0
20260502032542 79 0 0.0 2.6 0.00 1.22 1.20 100 1017.8
20260502032030 78 0 0.0 2.6 0.00 1.22 1.20 100 1017.8
20260502031527 79 351 0.9 2.6 0.00 1.22 1.20 100 1017.7
20260502031011 79 71 0.0 0.0 0.00 1.22 1.20 100 1017.7
20260502030506 79 71 0.0 3.5 0.00 1.23 1.20 100 1017.6